Time,TemperatureF,DewpointF,PressureIn,WindDirection,WindDirectionDegrees,WindSpeedMPH,WindSpeedGustMPH,Humidity,HourlyPrecipIn,Conditions,Clouds,dailyrainin,SoftwareType,DateUTC
2013-02-19 08:25:00,39.0,32.7,30.08,North,32767,-999.0,0.0,78,0.00,,,0.01,Wunderground v.1.15,2013-02-19 13:25:00,
2013-02-19 08:26:00,39.0,32.7,30.08,North,32767,-999.0,0.0,78,0.00,,,0.01,Wunderground v.1.15,2013-02-19 13:26:00,
2013-02-19 09:44:00,37.7,35.6,30.02,North,32767,-999.0,-999.0,92,0.05,,,0.15,Wunderground v.1.15,2013-02-19 14:44:00,
2013-02-19 09:49:00,37.8,35.7,30.03,North,32767,-999.0,-999.0,92,0.04,,,0.16,Wunderground v.1.15,2013-02-19 14:49:00,
2013-02-19 09:50:00,37.8,35.7,30.03,North,32767,-999.0,-999.0,92,0.04,,,0.16,Wunderground v.1.15,2013-02-19 14:50:00,
2013-02-19 09:54:00,37.9,36.1,30.02,North,32767,-999.0,-999.0,93,0.04,,,0.16,Wunderground v.1.15,2013-02-19 14:54:00,
2013-02-19 09:55:00,38.0,36.2,30.02,North,32767,-999.0,-999.0,93,0.04,,,0.16,Wunderground v.1.15,2013-02-19 14:55:00,
2013-02-19 09:59:00,38.1,36.3,30.02,North,32767,-999.0,-999.0,93,0.04,,,0.16,Wunderground v.1.15,2013-02-19 14:59:00,
2013-02-19 10:00:00,38.1,36.3,30.02,North,32767,-999.0,-999.0,93,0.04,,,0.16,Wunderground v.1.15,2013-02-19 15:00:00,
2013-02-19 10:04:00,38.1,36.3,30.01,North,32767,-999.0,-999.0,93,0.05,,,0.17,Wunderground v.1.15,2013-02-19 15:04:00,
2013-02-19 10:05:00,38.1,36.3,30.01,North,32767,-999.0,-999.0,93,0.05,,,0.17,Wunderground v.1.15,2013-02-19 15:05:00,
2013-02-19 10:10:00,38.2,36.4,30.01,North,32767,-999.0,-999.0,93,0.05,,,0.17,Wunderground v.1.15,2013-02-19 15:10:00,
2013-02-19 10:15:00,38.2,36.4,30.01,North,32767,-999.0,0.0,93,0.04,,,0.17,Wunderground v.1.15,2013-02-19 15:15:00,
2013-02-19 10:20:00,38.1,36.3,30.01,North,32767,-999.0,-999.0,93,0.00,,,0.18,Wunderground v.1.15,2013-02-19 15:20:00,
2013-02-19 10:25:00,38.2,36.6,30.01,North,32767,-999.0,-999.0,94,0.00,,,0.18,Wunderground v.1.15,2013-02-19 15:25:00,
2013-02-19 10:30:00,38.3,36.5,30.01,North,32767,-999.0,-999.0,93,0.00,,,0.18,Wunderground v.1.15,2013-02-19 15:30:00,
2013-02-19 10:35:00,38.5,36.9,30.00,North,32767,-999.0,-999.0,94,0.05,,,0.19,Wunderground v.1.15,2013-02-19 15:35:00,
2013-02-19 10:40:00,38.7,37.1,30.00,North,32767,-999.0,-999.0,94,0.05,,,0.19,Wunderground v.1.15,2013-02-19 15:40:00,
2013-02-19 10:41:00,38.7,37.1,29.99,North,32767,-999.0,-999.0,94,0.06,,,0.20,Wunderground v.1.15,2013-02-19 15:41:00,
2013-02-19 10:45:00,38.9,37.3,30.00,North,32767,-999.0,-999.0,94,0.06,,,0.20,Wunderground v.1.15,2013-02-19 15:45:00,
2013-02-19 10:46:00,38.9,37.3,29.99,North,32767,-999.0,-999.0,94,0.06,,,0.20,Wunderground v.1.15,2013-02-19 15:46:00,
2013-02-19 10:50:00,39.0,37.4,29.99,North,32767,-999.0,-999.0,94,0.06,,,0.20,Wunderground v.1.15,2013-02-19 15:50:00,
2013-02-19 10:51:00,39.0,37.4,29.99,North,32767,-999.0,-999.0,94,0.06,,,0.20,Wunderground v.1.15,2013-02-19 15:51:00,
2013-02-19 10:55:00,39.0,37.4,29.99,North,32767,-999.0,-999.0,94,0.04,,,0.20,Wunderground v.1.15,2013-02-19 15:55:00,
2013-02-19 10:56:00,39.0,37.4,29.99,North,32767,-999.0,-999.0,94,0.04,,,0.20,Wunderground v.1.15,2013-02-19 15:56:00,
2013-02-19 10:57:00,39.0,37.4,29.99,North,32767,-999.0,-999.0,94,0.04,,,0.20,Wunderground v.1.15,2013-02-19 15:57:00,
2013-02-19 11:01:00,39.0,37.4,29.99,North,32767,-999.0,-999.0,94,0.04,,,0.21,Wunderground v.1.15,2013-02-19 16:01:00,
2013-02-19 11:02:00,39.0,37.4,29.99,North,32767,-999.0,-999.0,94,0.04,,,0.21,Wunderground v.1.15,2013-02-19 16:02:00,
2013-02-19 11:06:00,39.2,37.6,29.99,North,32767,-999.0,-999.0,94,0.10,,,0.22,Wunderground v.1.15,2013-02-19 16:06:00,
2013-02-19 11:07:00,39.2,37.6,29.99,North,32767,-999.0,-999.0,94,0.10,,,0.22,Wunderground v.1.15,2013-02-19 16:07:00,
2013-02-19 11:11:00,39.4,38.1,29.99,North,32767,-999.0,-999.0,95,0.07,,,0.22,Wunderground v.1.15,2013-02-19 16:11:00,
2013-02-19 11:12:00,39.4,38.1,29.99,North,32767,-999.0,-999.0,95,0.07,,,0.22,Wunderground v.1.15,2013-02-19 16:12:00,
2013-02-19 11:16:00,39.5,37.9,29.98,North,32767,-999.0,-999.0,94,0.05,,,0.22,Wunderground v.1.15,2013-02-19 16:16:00,
2013-02-19 11:17:00,39.5,37.9,29.98,North,32767,-999.0,-999.0,94,0.04,,,0.22,Wunderground v.1.15,2013-02-19 16:17:00,
2013-02-19 11:21:00,39.6,38.3,29.98,North,32767,-999.0,-999.0,95,0.00,,,0.22,Wunderground v.1.15,2013-02-19 16:21:00,
2013-02-19 11:22:00,39.6,38.3,29.98,North,32767,-999.0,-999.0,95,0.00,,,0.23,Wunderground v.1.15,2013-02-19 16:22:00,
2013-02-19 11:26:00,39.7,38.4,29.98,North,32767,-999.0,-999.0,95,0.00,,,0.23,Wunderground v.1.15,2013-02-19 16:26:00,
2013-02-19 11:27:00,39.7,38.4,29.98,North,32767,-999.0,-999.0,95,0.00,,,0.23,Wunderground v.1.15,2013-02-19 16:27:00,
2013-02-19 11:32:00,39.9,38.6,29.97,North,32767,-999.0,-999.0,95,0.00,,,0.23,Wunderground v.1.15,2013-02-19 16:32:00,
2013-02-19 11:37:00,39.9,38.6,29.97,North,32767,-999.0,-999.0,95,0.00,,,0.23,Wunderground v.1.15,2013-02-19 16:37:00,
2013-02-19 11:38:00,39.9,38.6,29.96,North,32767,-999.0,-999.0,95,0.00,,,0.23,Wunderground v.1.15,2013-02-19 16:38:00,
2013-02-19 11:42:00,40.0,38.7,29.96,North,32767,-999.0,-999.0,95,0.00,,,0.24,Wunderground v.1.15,2013-02-19 16:42:00,
2013-02-19 11:43:00,40.1,38.8,29.96,North,32767,-999.0,-999.0,95,0.00,,,0.24,Wunderground v.1.15,2013-02-19 16:43:00,
2013-02-19 11:47:00,40.1,38.8,29.96,North,32767,-999.0,-999.0,95,0.00,,,0.24,Wunderground v.1.15,2013-02-19 16:47:00,
2013-02-19 11:48:00,40.1,38.8,29.96,North,32767,-999.0,-999.0,95,0.00,,,0.24,Wunderground v.1.15,2013-02-19 16:48:00,
2013-02-19 11:52:00,40.2,38.9,29.96,North,32767,-999.0,-999.0,95,0.00,,,0.24,Wunderground v.1.15,2013-02-19 16:52:00,
2013-02-19 11:53:00,40.2,38.9,29.96,North,32767,-999.0,-999.0,95,0.00,,,0.24,Wunderground v.1.15,2013-02-19 16:53:00,
2013-02-19 11:57:00,40.3,39.0,29.96,North,32767,-999.0,-999.0,95,0.00,,,0.24,Wunderground v.1.15,2013-02-19 16:57:00,
2013-02-19 11:58:00,40.2,38.9,29.96,North,32767,-999.0,-999.0,95,0.04,,,0.25,Wunderground v.1.15,2013-02-19 16:58:00,
2013-02-19 11:59:00,40.2,38.9,29.95,North,32767,-999.0,-999.0,95,0.04,,,0.25,Wunderground v.1.15,2013-02-19 16:59:00,
2013-02-19 12:03:00,40.3,39.0,29.96,North,32767,-999.0,-999.0,95,0.04,,,0.25,Wunderground v.1.15,2013-02-19 17:03:00,
2013-02-19 12:04:00,40.3,39.0,29.96,North,32767,-999.0,-999.0,95,0.04,,,0.25,Wunderground v.1.15,2013-02-19 17:04:00,
2013-02-19 12:08:00,40.4,39.1,29.95,North,32767,-999.0,-999.0,95,0.04,,,0.25,Wunderground v.1.15,2013-02-19 17:08:00,
2013-02-19 12:09:00,40.4,39.1,29.95,North,32767,-999.0,-999.0,95,0.04,,,0.25,Wunderground v.1.15,2013-02-19 17:09:00,
2013-02-19 12:13:00,40.5,39.2,29.94,North,32767,-999.0,-999.0,95,0.04,,,0.25,Wunderground v.1.15,2013-02-19 17:13:00,
2013-02-19 12:14:00,40.6,39.3,29.95,North,32767,-999.0,-999.0,95,0.04,,,0.25,Wunderground v.1.15,2013-02-19 17:14:00,
2013-02-19 12:18:00,40.7,39.6,29.94,North,32767,-999.0,-999.0,96,0.00,,,0.25,Wunderground v.1.15,2013-02-19 17:18:00,
2013-02-19 12:19:00,40.8,39.7,29.94,North,32767,-999.0,-999.0,96,0.00,,,0.25,Wunderground v.1.15,2013-02-19 17:19:00,
2013-02-19 12:23:00,41.1,40.0,29.94,North,32767,-999.0,-999.0,96,0.00,,,0.25,Wunderground v.1.15,2013-02-19 17:23:00,
2013-02-19 12:24:00,41.2,40.1,29.93,North,32767,-999.0,-999.0,96,0.00,,,0.25,Wunderground v.1.15,2013-02-19 17:24:00,
2013-02-19 12:28:00,41.5,40.4,29.93,North,32767,-999.0,-999.0,96,0.00,,,0.25,Wunderground v.1.15,2013-02-19 17:28:00,
2013-02-19 12:29:00,41.5,40.4,29.93,North,32767,-999.0,-999.0,96,0.00,,,0.25,Wunderground v.1.15,2013-02-19 17:29:00,
2013-02-19 12:33:00,41.6,40.3,29.93,North,32767,-999.0,-999.0,95,0.00,,,0.25,Wunderground v.1.15,2013-02-19 17:33:00,
2013-02-19 12:34:00,41.6,40.3,29.93,North,32767,-999.0,-999.0,95,0.00,,,0.25,Wunderground v.1.15,2013-02-19 17:34:00,
2013-02-19 12:38:00,41.6,40.3,29.92,North,32767,-999.0,-999.0,95,0.00,,,0.25,Wunderground v.1.15,2013-02-19 17:38:00,
2013-02-19 12:39:00,41.6,40.3,29.92,North,32767,-999.0,-999.0,95,0.00,,,0.25,Wunderground v.1.15,2013-02-19 17:39:00,
2013-02-19 12:43:00,41.7,40.4,29.92,North,32767,-999.0,-999.0,95,0.00,,,0.25,Wunderground v.1.15,2013-02-19 17:43:00,
2013-02-19 12:44:00,41.7,40.4,29.92,North,32767,-999.0,-999.0,95,0.00,,,0.25,Wunderground v.1.15,2013-02-19 17:44:00,
2013-02-19 12:48:00,41.8,40.5,29.92,North,32767,-999.0,-999.0,95,0.00,,,0.25,Wunderground v.1.15,2013-02-19 17:48:00,
2013-02-19 12:49:00,41.8,40.5,29.92,North,32767,-999.0,-999.0,95,0.00,,,0.25,Wunderground v.1.15,2013-02-19 17:49:00,
2013-02-19 12:53:00,42.1,40.8,29.91,North,32767,-999.0,-999.0,95,0.00,,,0.25,Wunderground v.1.15,2013-02-19 17:53:00,
2013-02-19 12:54:00,42.1,40.8,29.91,North,32767,-999.0,-999.0,95,0.00,,,0.25,Wunderground v.1.15,2013-02-19 17:54:00,
2013-02-19 12:58:00,42.1,40.8,29.91,North,32767,-999.0,-999.0,95,0.00,,,0.25,Wunderground v.1.15,2013-02-19 17:58:00,
2013-02-19 12:59:00,42.1,40.8,29.91,North,32767,-999.0,-999.0,95,0.00,,,0.25,Wunderground v.1.15,2013-02-19 17:59:00,
2013-02-19 13:03:00,42.2,40.9,29.90,North,32767,-999.0,-999.0,95,0.00,,,0.25,Wunderground v.1.15,2013-02-19 18:03:00,
2013-02-19 13:04:00,42.2,40.9,29.90,North,32767,-999.0,-999.0,95,0.00,,,0.25,Wunderground v.1.15,2013-02-19 18:04:00,
2013-02-19 13:09:00,42.4,41.1,29.90,North,32767,-999.0,-999.0,95,0.00,,,0.25,Wunderground v.1.15,2013-02-19 18:09:00,
2013-02-19 13:14:00,42.5,41.2,29.89,North,32767,-999.0,-999.0,95,0.00,,,0.25,Wunderground v.1.15,2013-02-19 18:14:00,
2013-02-19 13:15:00,42.6,41.3,29.89,North,32767,-999.0,-999.0,95,0.00,,,0.25,Wunderground v.1.15,2013-02-19 18:15:00,
2013-02-19 13:19:00,42.8,41.5,29.89,North,32767,-999.0,-999.0,95,0.00,,,0.25,Wunderground v.1.15,2013-02-19 18:19:00,
2013-02-19 13:20:00,42.8,41.5,29.89,North,32767,-999.0,-999.0,95,0.00,,,0.25,Wunderground v.1.15,2013-02-19 18:20:00,
2013-02-19 13:24:00,42.9,41.6,29.89,North,32767,-999.0,-999.0,95,0.00,,,0.25,Wunderground v.1.15,2013-02-19 18:24:00,
2013-02-19 13:25:00,42.9,41.6,29.89,North,32767,-999.0,-999.0,95,0.00,,,0.25,Wunderground v.1.15,2013-02-19 18:25:00,
2013-02-19 13:29:00,43.1,41.8,29.88,North,32767,-999.0,-999.0,95,0.00,,,0.25,Wunderground v.1.15,2013-02-19 18:29:00,
2013-02-19 13:30:00,43.1,41.8,29.88,North,32767,-999.0,-999.0,95,0.00,,,0.25,Wunderground v.1.15,2013-02-19 18:30:00,
2013-02-19 13:34:00,43.1,41.8,29.88,North,32767,-999.0,-999.0,95,0.00,,,0.25,Wunderground v.1.15,2013-02-19 18:34:00,
2013-02-19 13:35:00,43.2,41.9,29.88,North,32767,-999.0,-999.0,95,0.00,,,0.25,Wunderground v.1.15,2013-02-19 18:35:00,
2013-02-19 13:39:00,43.3,42.0,29.88,North,32767,-999.0,-999.0,95,0.00,,,0.25,Wunderground v.1.15,2013-02-19 18:39:00,
2013-02-19 13:40:00,43.4,42.1,29.88,North,32767,-999.0,-999.0,95,0.00,,,0.25,Wunderground v.1.15,2013-02-19 18:40:00,
2013-02-19 13:41:00,43.4,42.1,29.88,North,32767,-999.0,-999.0,95,0.00,,,0.25,Wunderground v.1.15,2013-02-19 18:41:00,
2013-02-19 13:44:00,43.5,42.2,29.88,North,32767,-999.0,-999.0,95,0.00,,,0.25,Wunderground v.1.15,2013-02-19 18:44:00,
2013-02-19 13:45:00,43.5,42.2,29.88,North,32767,-999.0,-999.0,95,0.00,,,0.25,Wunderground v.1.15,2013-02-19 18:45:00,
2013-02-19 13:46:00,43.6,42.3,29.88,North,32767,-999.0,-999.0,95,0.00,,,0.25,Wunderground v.1.15,2013-02-19 18:46:00,
2013-02-19 13:49:00,43.7,42.4,29.88,North,32767,-999.0,-999.0,95,0.00,,,0.25,Wunderground v.1.15,2013-02-19 18:49:00,
2013-02-19 13:50:00,43.7,42.4,29.88,North,32767,-999.0,-999.0,95,0.00,,,0.25,Wunderground v.1.15,2013-02-19 18:50:00,
2013-02-19 13:51:00,43.7,42.4,29.88,North,32767,-999.0,-999.0,95,0.00,,,0.25,Wunderground v.1.15,2013-02-19 18:51:00,
2013-02-19 13:54:00,43.7,42.4,29.88,North,32767,-999.0,-999.0,95,0.00,,,0.25,Wunderground v.1.15,2013-02-19 18:54:00,
2013-02-19 13:55:00,43.7,42.4,29.88,North,32767,-999.0,-999.0,95,0.00,,,0.25,Wunderground v.1.15,2013-02-19 18:55:00,
2013-02-19 13:56:00,43.7,42.4,29.88,North,32767,-999.0,-999.0,95,0.00,,,0.25,Wunderground v.1.15,2013-02-19 18:56:00,
2013-02-19 13:59:00,43.8,42.5,29.88,North,32767,-999.0,-999.0,95,0.00,,,0.25,Wunderground v.1.15,2013-02-19 18:59:00,
2013-02-19 14:01:00,43.9,42.6,29.88,North,32767,-999.0,-999.0,95,0.00,,,0.25,Wunderground v.1.15,2013-02-19 19:01:00,
2013-02-19 14:02:00,43.9,42.6,29.88,North,32767,-999.0,-999.0,95,0.00,,,0.25,Wunderground v.1.15,2013-02-19 19:02:00,
2013-02-19 14:04:00,43.9,42.6,29.88,North,32767,-999.0,-999.0,95,0.00,,,0.25,Wunderground v.1.15,2013-02-19 19:04:00,
2013-02-19 14:07:00,44.0,42.7,29.88,North,32767,-999.0,-999.0,95,0.00,,,0.25,Wunderground v.1.15,2013-02-19 19:07:00,
2013-02-19 14:10:00,44.1,42.8,29.88,North,32767,-999.0,-999.0,95,0.00,,,0.25,Wunderground v.1.15,2013-02-19 19:10:00,
2013-02-19 14:12:00,44.1,42.8,29.87,North,32767,-999.0,-999.0,95,0.00,,,0.25,Wunderground v.1.15,2013-02-19 19:12:00,
2013-02-19 14:15:00,44.2,42.9,29.87,North,32767,-999.0,-999.0,95,0.00,,,0.25,Wunderground v.1.15,2013-02-19 19:15:00,
2013-02-19 14:17:00,44.2,42.9,29.87,North,32767,-999.0,-999.0,95,0.00,,,0.25,Wunderground v.1.15,2013-02-19 19:17:00,
2013-02-19 14:20:00,44.3,42.7,29.86,North,32767,-999.0,-999.0,94,0.00,,,0.25,Wunderground v.1.15,2013-02-19 19:20:00,
2013-02-19 14:22:00,44.4,43.1,29.87,North,32767,-999.0,-999.0,95,0.00,,,0.25,Wunderground v.1.15,2013-02-19 19:22:00,
2013-02-19 14:25:00,44.6,43.0,29.87,North,32767,-999.0,-999.0,94,0.00,,,0.25,Wunderground v.1.15,2013-02-19 19:25:00,
2013-02-19 14:27:00,44.6,43.0,29.86,North,32767,-999.0,-999.0,94,0.00,,,0.25,Wunderground v.1.15,2013-02-19 19:27:00,
2013-02-19 14:30:00,44.8,43.2,29.86,North,32767,-999.0,-999.0,94,0.00,,,0.25,Wunderground v.1.15,2013-02-19 19:30:00,
2013-02-19 14:32:00,44.8,43.2,29.86,North,32767,-999.0,-999.0,94,0.00,,,0.25,Wunderground v.1.15,2013-02-19 19:32:00,
2013-02-19 14:35:00,44.9,43.0,29.86,North,32767,-999.0,-999.0,93,0.00,,,0.25,Wunderground v.1.15,2013-02-19 19:35:00,
2013-02-19 14:37:00,45.0,43.1,29.86,North,32767,-999.0,-999.0,93,0.00,,,0.25,Wunderground v.1.15,2013-02-19 19:37:00,
2013-02-19 14:40:00,45.1,43.2,29.86,North,32767,-999.0,-999.0,93,0.00,,,0.25,Wunderground v.1.15,2013-02-19 19:40:00,
2013-02-19 14:42:00,45.1,43.2,29.86,North,32767,-999.0,-999.0,93,0.00,,,0.25,Wunderground v.1.15,2013-02-19 19:42:00,
2013-02-19 14:45:00,45.2,43.3,29.86,North,32767,-999.0,-999.0,93,0.00,,,0.25,Wunderground v.1.15,2013-02-19 19:45:00,
2013-02-19 14:47:00,45.2,43.3,29.86,North,32767,-999.0,-999.0,93,0.00,,,0.25,Wunderground v.1.15,2013-02-19 19:47:00,
2013-02-19 14:50:00,45.3,43.1,29.86,North,32767,-999.0,-999.0,92,0.00,,,0.25,Wunderground v.1.15,2013-02-19 19:50:00,
2013-02-19 14:52:00,45.4,43.2,29.86,North,32767,-999.0,-999.0,92,0.00,,,0.25,Wunderground v.1.15,2013-02-19 19:52:00,
2013-02-19 14:53:00,45.4,43.2,29.86,North,32767,-999.0,-999.0,92,0.00,,,0.25,Wunderground v.1.15,2013-02-19 19:53:00,
2013-02-19 14:55:00,45.4,43.2,29.86,North,32767,-999.0,-999.0,92,0.00,,,0.25,Wunderground v.1.15,2013-02-19 19:55:00,
2013-02-19 14:57:00,45.5,43.3,29.86,North,32767,-999.0,-999.0,92,0.00,,,0.25,Wunderground v.1.15,2013-02-19 19:57:00,
2013-02-19 14:58:00,45.4,43.2,29.86,North,32767,-999.0,-999.0,92,0.00,,,0.25,Wunderground v.1.15,2013-02-19 19:58:00,
2013-02-19 15:02:00,45.5,43.3,29.86,North,32767,-999.0,0.0,92,0.00,,,0.25,Wunderground v.1.15,2013-02-19 20:02:00,
2013-02-19 15:03:00,45.5,43.3,29.86,North,32767,-999.0,0.0,92,0.00,,,0.25,Wunderground v.1.15,2013-02-19 20:03:00,
2013-02-19 15:07:00,45.5,43.3,29.85,North,32767,-999.0,0.0,92,0.00,,,0.25,Wunderground v.1.15,2013-02-19 20:07:00,
2013-02-19 15:08:00,45.5,43.0,29.85,North,32767,-999.0,0.0,91,0.00,,,0.25,Wunderground v.1.15,2013-02-19 20:08:00,
2013-02-19 15:16:00,45.6,43.1,29.85,North,32767,-999.0,-999.0,91,0.00,,,0.25,Wunderground v.1.15,2013-02-19 20:16:00,
2013-02-19 15:21:00,45.6,43.1,29.85,North,32767,-999.0,-999.0,91,0.00,,,0.25,Wunderground v.1.15,2013-02-19 20:21:00,
2013-02-19 15:26:00,45.7,43.2,29.85,North,32767,-999.0,-999.0,91,0.00,,,0.25,Wunderground v.1.15,2013-02-19 20:26:00,
2013-02-19 15:27:00,45.8,43.3,29.85,North,32767,-999.0,-999.0,91,0.00,,,0.25,Wunderground v.1.15,2013-02-19 20:27:00,
2013-02-19 15:31:00,45.8,43.0,29.85,North,32767,-999.0,-999.0,90,0.00,,,0.25,Wunderground v.1.15,2013-02-19 20:31:00,
2013-02-19 15:32:00,45.8,43.0,29.85,North,32767,-999.0,-999.0,90,0.00,,,0.25,Wunderground v.1.15,2013-02-19 20:32:00,
2013-02-19 15:36:00,45.8,43.0,29.85,North,32767,-999.0,-999.0,90,0.00,,,0.25,Wunderground v.1.15,2013-02-19 20:36:00,
2013-02-19 15:37:00,45.9,43.1,29.85,North,32767,-999.0,-999.0,90,0.00,,,0.25,Wunderground v.1.15,2013-02-19 20:37:00,
2013-02-19 15:38:00,45.9,43.1,29.85,North,32767,-999.0,-999.0,90,0.00,,,0.25,Wunderground v.1.15,2013-02-19 20:38:00,
2013-02-19 15:42:00,45.9,43.1,29.85,North,32767,-999.0,-999.0,90,0.00,,,0.25,Wunderground v.1.15,2013-02-19 20:42:00,
2013-02-19 15:43:00,45.9,43.1,29.85,North,32767,-999.0,-999.0,90,0.00,,,0.25,Wunderground v.1.15,2013-02-19 20:43:00,
2013-02-19 15:47:00,45.9,43.1,29.85,North,32767,-999.0,-999.0,90,0.00,,,0.25,Wunderground v.1.15,2013-02-19 20:47:00,
2013-02-19 15:48:00,46.0,43.2,29.85,North,32767,-999.0,-999.0,90,0.00,,,0.25,Wunderground v.1.15,2013-02-19 20:48:00,
2013-02-19 15:52:00,46.1,43.3,29.85,North,32767,-999.0,-999.0,90,0.00,,,0.25,Wunderground v.1.15,2013-02-19 20:52:00,
2013-02-19 15:53:00,46.1,43.3,29.85,North,32767,-999.0,-999.0,90,0.00,,,0.25,Wunderground v.1.15,2013-02-19 20:53:00,
2013-02-19 15:57:00,46.1,43.3,29.85,North,32767,-999.0,-999.0,90,0.00,,,0.25,Wunderground v.1.15,2013-02-19 20:57:00,
2013-02-19 15:58:00,46.1,43.3,29.85,North,32767,-999.0,-999.0,90,0.00,,,0.25,Wunderground v.1.15,2013-02-19 20:58:00,
2013-02-19 16:02:00,46.2,43.4,29.85,North,32767,-999.0,-999.0,90,0.00,,,0.25,Wunderground v.1.15,2013-02-19 21:02:00,
2013-02-19 16:03:00,46.2,43.4,29.85,North,32767,-999.0,-999.0,90,0.00,,,0.25,Wunderground v.1.15,2013-02-19 21:03:00,
2013-02-19 16:07:00,46.3,43.5,29.85,North,32767,-999.0,-999.0,90,0.00,,,0.25,Wunderground v.1.15,2013-02-19 21:07:00,
2013-02-19 16:08:00,46.3,43.5,29.85,North,32767,-999.0,-999.0,90,0.00,,,0.25,Wunderground v.1.15,2013-02-19 21:08:00,
2013-02-19 16:09:00,46.3,43.5,29.85,North,32767,-999.0,-999.0,90,0.00,,,0.25,Wunderground v.1.15,2013-02-19 21:09:00,
2013-02-19 16:12:00,46.3,43.2,29.85,North,32767,-999.0,-999.0,89,0.00,,,0.25,Wunderground v.1.15,2013-02-19 21:12:00,
2013-02-19 16:13:00,46.3,43.2,29.85,North,32767,-999.0,-999.0,89,0.00,,,0.25,Wunderground v.1.15,2013-02-19 21:13:00,
2013-02-19 16:14:00,46.3,43.2,29.85,North,32767,-999.0,-999.0,89,0.00,,,0.25,Wunderground v.1.15,2013-02-19 21:14:00,
2013-02-19 16:17:00,46.3,43.2,29.85,North,32767,-999.0,-999.0,89,0.00,,,0.25,Wunderground v.1.15,2013-02-19 21:17:00,
2013-02-19 16:18:00,46.3,43.2,29.85,North,32767,-999.0,-999.0,89,0.00,,,0.25,Wunderground v.1.15,2013-02-19 21:18:00,
2013-02-19 16:19:00,46.4,43.3,29.85,North,32767,-999.0,-999.0,89,0.00,,,0.25,Wunderground v.1.15,2013-02-19 21:19:00,
2013-02-19 16:22:00,46.4,43.3,29.85,North,32767,-999.0,-999.0,89,0.00,,,0.25,Wunderground v.1.15,2013-02-19 21:22:00,
2013-02-19 16:23:00,46.4,43.3,29.85,North,32767,-999.0,-999.0,89,0.00,,,0.25,Wunderground v.1.15,2013-02-19 21:23:00,
2013-02-19 16:24:00,46.5,43.4,29.85,North,32767,-999.0,-999.0,89,0.00,,,0.25,Wunderground v.1.15,2013-02-19 21:24:00,
2013-02-19 16:27:00,46.7,43.3,29.85,North,32767,-999.0,-999.0,88,0.00,,,0.25,Wunderground v.1.15,2013-02-19 21:27:00,
2013-02-19 16:28:00,46.8,43.4,29.85,North,32767,-999.0,-999.0,88,0.00,,,0.25,Wunderground v.1.15,2013-02-19 21:28:00,
2013-02-19 16:29:00,46.9,43.8,29.85,North,32767,-999.0,-999.0,89,0.00,,,0.25,Wunderground v.1.15,2013-02-19 21:29:00,
2013-02-19 16:32:00,47.3,43.6,29.85,North,32767,-999.0,-999.0,87,0.00,,,0.25,Wunderground v.1.15,2013-02-19 21:32:00,
2013-02-19 16:33:00,47.4,43.7,29.85,North,32767,-999.0,-999.0,87,0.00,,,0.25,Wunderground v.1.15,2013-02-19 21:33:00,
2013-02-19 16:34:00,47.5,43.8,29.85,North,32767,-999.0,-999.0,87,0.00,,,0.25,Wunderground v.1.15,2013-02-19 21:34:00,
2013-02-19 16:37:00,48.0,44.3,29.85,North,32767,-999.0,-999.0,87,0.00,,,0.25,Wunderground v.1.15,2013-02-19 21:37:00,
2013-02-19 16:38:00,48.0,44.3,29.85,North,32767,-999.0,-999.0,87,0.00,,,0.25,Wunderground v.1.15,2013-02-19 21:38:00,
2013-02-19 16:39:00,48.1,44.4,29.85,North,32767,-999.0,-999.0,87,0.00,,,0.25,Wunderground v.1.15,2013-02-19 21:39:00,
2013-02-19 16:43:00,48.1,43.8,29.85,North,32767,-999.0,-999.0,85,0.00,,,0.25,Wunderground v.1.15,2013-02-19 21:43:00,
2013-02-19 16:44:00,48.1,43.8,29.85,North,32767,-999.0,-999.0,85,0.00,,,0.25,Wunderground v.1.15,2013-02-19 21:44:00,
2013-02-19 16:48:00,48.0,43.7,29.85,North,32767,-999.0,-999.0,85,0.00,,,0.25,Wunderground v.1.15,2013-02-19 21:48:00,
2013-02-19 16:49:00,48.0,43.7,29.85,North,32767,-999.0,-999.0,85,0.00,,,0.25,Wunderground v.1.15,2013-02-19 21:49:00,
2013-02-19 16:53:00,47.7,43.7,29.85,North,32767,-999.0,-999.0,86,0.00,,,0.25,Wunderground v.1.15,2013-02-19 21:53:00,
2013-02-19 16:54:00,47.6,43.6,29.85,North,32767,-999.0,-999.0,86,0.00,,,0.25,Wunderground v.1.15,2013-02-19 21:54:00,
2013-02-19 16:58:00,47.5,43.5,29.86,North,32767,-999.0,-999.0,86,0.00,,,0.25,Wunderground v.1.15,2013-02-19 21:58:00,
2013-02-19 16:59:00,47.5,43.5,29.86,North,32767,-999.0,-999.0,86,0.00,,,0.25,Wunderground v.1.15,2013-02-19 21:59:00,
2013-02-19 17:03:00,47.5,43.5,29.86,North,32767,-999.0,-999.0,86,0.00,,,0.25,Wunderground v.1.15,2013-02-19 22:03:00,
2013-02-19 17:04:00,47.5,43.5,29.86,North,32767,-999.0,-999.0,86,0.00,,,0.25,Wunderground v.1.15,2013-02-19 22:04:00,
2013-02-19 17:08:00,47.4,43.4,29.86,North,32767,-999.0,-999.0,86,0.00,,,0.25,Wunderground v.1.15,2013-02-19 22:08:00,
2013-02-19 17:09:00,47.3,43.3,29.86,North,32767,-999.0,-999.0,86,0.00,,,0.25,Wunderground v.1.15,2013-02-19 22:09:00,
2013-02-19 17:10:00,47.3,43.3,29.86,North,32767,-999.0,-999.0,86,0.00,,,0.25,Wunderground v.1.15,2013-02-19 22:10:00,
2013-02-19 17:14:00,47.2,43.5,29.85,North,32767,-999.0,-999.0,87,0.00,,,0.25,Wunderground v.1.15,2013-02-19 22:14:00,
2013-02-19 17:15:00,47.1,43.4,29.85,North,32767,-999.0,-999.0,87,0.00,,,0.25,Wunderground v.1.15,2013-02-19 22:15:00,
2013-02-19 17:19:00,47.0,43.3,29.86,North,32767,-999.0,-999.0,87,0.00,,,0.25,Wunderground v.1.15,2013-02-19 22:19:00,
2013-02-19 17:20:00,47.0,43.3,29.86,North,32767,-999.0,-999.0,87,0.00,,,0.25,Wunderground v.1.15,2013-02-19 22:20:00,
2013-02-19 17:24:00,46.9,43.2,29.86,North,32767,-999.0,-999.0,87,0.00,,,0.25,Wunderground v.1.15,2013-02-19 22:24:00,
2013-02-19 17:25:00,46.8,43.1,29.86,North,32767,-999.0,-999.0,87,0.00,,,0.25,Wunderground v.1.15,2013-02-19 22:25:00,
2013-02-19 17:29:00,46.8,43.1,29.86,North,32767,-999.0,-999.0,87,0.00,,,0.25,Wunderground v.1.15,2013-02-19 22:29:00,
2013-02-19 17:30:00,46.8,43.1,29.86,North,32767,-999.0,-999.0,87,0.00,,,0.25,Wunderground v.1.15,2013-02-19 22:30:00,
2013-02-19 17:34:00,46.8,43.1,29.86,North,32767,-999.0,-999.0,87,0.00,,,0.25,Wunderground v.1.15,2013-02-19 22:34:00,
2013-02-19 17:35:00,46.8,43.1,29.86,North,32767,-999.0,-999.0,87,0.00,,,0.25,Wunderground v.1.15,2013-02-19 22:35:00,
2013-02-19 17:39:00,46.8,43.1,29.86,North,32767,-999.0,-999.0,87,0.00,,,0.25,Wunderground v.1.15,2013-02-19 22:39:00,
2013-02-19 17:40:00,46.7,43.0,29.86,North,32767,-999.0,-999.0,87,0.00,,,0.25,Wunderground v.1.15,2013-02-19 22:40:00,
2013-02-19 17:44:00,46.6,43.2,29.87,North,32767,-999.0,-999.0,88,0.00,,,0.25,Wunderground v.1.15,2013-02-19 22:44:00,
2013-02-19 17:45:00,46.5,43.1,29.87,North,32767,-999.0,-999.0,88,0.00,,,0.25,Wunderground v.1.15,2013-02-19 22:45:00,
2013-02-19 17:49:00,46.4,43.0,29.87,North,32767,-999.0,-999.0,88,0.00,,,0.25,Wunderground v.1.15,2013-02-19 22:49:00,
2013-02-19 17:50:00,46.4,43.0,29.87,North,32767,-999.0,-999.0,88,0.00,,,0.25,Wunderground v.1.15,2013-02-19 22:50:00,
2013-02-19 17:51:00,46.4,43.0,29.87,North,32767,-999.0,-999.0,88,0.00,,,0.25,Wunderground v.1.15,2013-02-19 22:51:00,
2013-02-19 17:54:00,46.2,42.8,29.87,North,32767,-999.0,-999.0,88,0.00,,,0.25,Wunderground v.1.15,2013-02-19 22:54:00,
2013-02-19 17:55:00,46.2,42.8,29.87,North,32767,-999.0,-999.0,88,0.00,,,0.25,Wunderground v.1.15,2013-02-19 22:55:00,
2013-02-19 17:56:00,46.1,42.7,29.87,North,32767,-999.0,-999.0,88,0.00,,,0.25,Wunderground v.1.15,2013-02-19 22:56:00,
2013-02-19 17:59:00,45.9,42.5,29.87,North,32767,-999.0,-999.0,88,0.00,,,0.25,Wunderground v.1.15,2013-02-19 22:59:00,
2013-02-19 18:00:00,45.9,42.5,29.88,North,32767,-999.0,-999.0,88,0.00,,,0.25,Wunderground v.1.15,2013-02-19 23:00:00,
2013-02-19 18:02:00,45.9,42.5,29.88,North,32767,-999.0,-999.0,88,0.00,,,0.25,Wunderground v.1.15,2013-02-19 23:02:00,
2013-02-19 18:04:00,45.7,42.6,29.88,North,32767,-999.0,-999.0,89,0.00,,,0.25,Wunderground v.1.15,2013-02-19 23:04:00,
2013-02-19 18:05:00,45.7,42.6,29.88,North,32767,-999.0,-999.0,89,0.00,,,0.25,Wunderground v.1.15,2013-02-19 23:05:00,
2013-02-19 18:06:00,45.5,42.4,29.88,North,32767,-999.0,-999.0,89,0.00,,,0.25,Wunderground v.1.15,2013-02-19 23:06:00,
2013-02-19 18:07:00,45.5,42.4,29.88,North,32767,-999.0,-999.0,89,0.00,,,0.25,Wunderground v.1.15,2013-02-19 23:07:00,
2013-02-19 18:09:00,45.4,42.3,29.88,North,32767,-999.0,-999.0,89,0.00,,,0.25,Wunderground v.1.15,2013-02-19 23:09:00,
2013-02-19 18:10:00,45.3,42.2,29.88,North,32767,-999.0,-999.0,89,0.00,,,0.25,Wunderground v.1.15,2013-02-19 23:10:00,
2013-02-19 18:12:00,45.2,42.2,29.88,North,32767,-999.0,-999.0,89,0.00,,,0.25,Wunderground v.1.15,2013-02-19 23:12:00,
2013-02-19 18:14:00,45.1,42.3,29.88,North,32767,-999.0,-999.0,90,0.00,,,0.25,Wunderground v.1.15,2013-02-19 23:14:00,
2013-02-19 18:15:00,45.1,42.3,29.89,North,32767,-999.0,-999.0,90,0.00,,,0.25,Wunderground v.1.15,2013-02-19 23:15:00,
2013-02-19 18:17:00,45.1,42.3,29.88,North,32767,-999.0,-999.0,90,0.00,,,0.25,Wunderground v.1.15,2013-02-19 23:17:00,
2013-02-19 18:18:00,45.1,42.3,29.89,North,32767,-999.0,-999.0,90,0.00,,,0.25,Wunderground v.1.15,2013-02-19 23:18:00,
2013-02-19 18:19:00,45.1,42.3,29.89,North,32767,-999.0,-999.0,90,0.00,,,0.25,Wunderground v.1.15,2013-02-19 23:19:00,
2013-02-19 18:20:00,45.1,42.3,29.89,North,32767,-999.0,-999.0,90,0.00,,,0.25,Wunderground v.1.15,2013-02-19 23:20:00,
2013-02-19 18:22:00,45.0,42.2,29.89,North,32767,-999.0,-999.0,90,0.00,,,0.25,Wunderground v.1.15,2013-02-19 23:22:00,
2013-02-19 18:23:00,45.0,42.2,29.89,North,32767,-999.0,-999.0,90,0.00,,,0.25,Wunderground v.1.15,2013-02-19 23:23:00,
2013-02-19 18:25:00,44.9,42.1,29.89,North,32767,-999.0,-999.0,90,0.00,,,0.25,Wunderground v.1.15,2013-02-19 23:25:00,
2013-02-19 18:27:00,44.8,42.0,29.89,North,32767,-999.0,-999.0,90,0.00,,,0.25,Wunderground v.1.15,2013-02-19 23:27:00,
2013-02-19 18:28:00,44.8,42.0,29.89,North,32767,-999.0,-999.0,90,0.00,,,0.25,Wunderground v.1.15,2013-02-19 23:28:00,
2013-02-19 18:30:00,44.8,42.3,29.90,North,32767,-999.0,-999.0,91,0.00,,,0.25,Wunderground v.1.15,2013-02-19 23:30:00,
2013-02-19 18:32:00,44.7,42.2,29.90,North,32767,-999.0,-999.0,91,0.00,,,0.25,Wunderground v.1.15,2013-02-19 23:32:00,
2013-02-19 18:33:00,44.6,42.1,29.90,North,32767,-999.0,-999.0,91,0.00,,,0.25,Wunderground v.1.15,2013-02-19 23:33:00,
2013-02-19 18:35:00,44.6,42.1,29.90,North,32767,-999.0,-999.0,91,0.00,,,0.25,Wunderground v.1.15,2013-02-19 23:35:00,
2013-02-19 18:38:00,44.5,42.0,29.90,North,32767,-999.0,-999.0,91,0.00,,,0.25,Wunderground v.1.15,2013-02-19 23:38:00,
2013-02-19 18:40:00,44.4,41.9,29.90,North,32767,-999.0,-999.0,91,0.00,,,0.25,Wunderground v.1.15,2013-02-19 23:40:00,
2013-02-19 18:41:00,44.4,41.9,29.90,North,32767,-999.0,-999.0,91,0.00,,,0.25,Wunderground v.1.15,2013-02-19 23:41:00,
2013-02-19 18:43:00,44.4,41.9,29.90,North,32767,-999.0,-999.0,91,0.00,,,0.25,Wunderground v.1.15,2013-02-19 23:43:00,
2013-02-19 18:46:00,44.2,41.7,29.90,North,32767,-999.0,-999.0,91,0.00,,,0.25,Wunderground v.1.15,2013-02-19 23:46:00,
2013-02-19 18:48:00,44.2,41.7,29.91,North,32767,-999.0,-999.0,91,0.00,,,0.25,Wunderground v.1.15,2013-02-19 23:48:00,
2013-02-19 18:51:00,44.0,41.8,29.91,North,32767,-999.0,-999.0,92,0.00,,,0.25,Wunderground v.1.15,2013-02-19 23:51:00,
2013-02-19 18:52:00,44.0,41.8,29.91,North,32767,-999.0,-999.0,92,0.00,,,0.25,Wunderground v.1.15,2013-02-19 23:52:00,
2013-02-19 18:53:00,43.9,41.7,29.91,North,32767,-999.0,-999.0,92,0.00,,,0.25,Wunderground v.1.15,2013-02-19 23:53:00,
2013-02-19 18:56:00,43.7,41.5,29.91,North,32767,-999.0,-999.0,92,0.00,,,0.25,Wunderground v.1.15,2013-02-19 23:56:00,
2013-02-19 18:57:00,43.7,41.5,29.91,North,32767,-999.0,-999.0,92,0.00,,,0.25,Wunderground v.1.15,2013-02-19 23:57:00,
2013-02-19 18:58:00,43.6,41.4,29.91,North,32767,-999.0,-999.0,92,0.00,,,0.25,Wunderground v.1.15,2013-02-19 23:58:00,
2013-02-19 19:01:00,43.5,41.3,29.92,North,32767,-999.0,-999.0,92,0.00,,,0.25,Wunderground v.1.15,2013-02-20 00:01:00,
2013-02-19 19:02:00,43.5,41.3,29.92,North,32767,-999.0,-999.0,92,0.00,,,0.25,Wunderground v.1.15,2013-02-20 00:02:00,
2013-02-19 19:03:00,43.4,41.2,29.92,North,32767,-999.0,-999.0,92,0.00,,,0.25,Wunderground v.1.15,2013-02-20 00:03:00,
2013-02-19 19:06:00,43.3,41.4,29.91,North,32767,-999.0,0.0,93,0.00,,,0.25,Wunderground v.1.15,2013-02-20 00:06:00,
2013-02-19 19:07:00,43.3,41.4,29.91,North,32767,-999.0,0.0,93,0.00,,,0.25,Wunderground v.1.15,2013-02-20 00:07:00,
2013-02-19 19:08:00,43.3,41.4,29.92,North,32767,-999.0,0.0,93,0.00,,,0.25,Wunderground v.1.15,2013-02-20 00:08:00,
2013-02-19 19:12:00,43.2,41.3,29.92,North,32767,-999.0,-999.0,93,0.00,,,0.25,Wunderground v.1.15,2013-02-20 00:12:00,
2013-02-19 19:13:00,43.2,41.3,29.92,North,32767,-999.0,-999.0,93,0.00,,,0.25,Wunderground v.1.15,2013-02-20 00:13:00,
2013-02-19 19:17:00,43.1,41.2,29.92,North,32767,-999.0,-999.0,93,0.00,,,0.25,Wunderground v.1.15,2013-02-20 00:17:00,
2013-02-19 19:18:00,43.1,41.2,29.92,North,32767,-999.0,-999.0,93,0.00,,,0.25,Wunderground v.1.15,2013-02-20 00:18:00,
2013-02-19 19:19:00,43.0,41.1,29.92,North,32767,-999.0,-999.0,93,0.00,,,0.25,Wunderground v.1.15,2013-02-20 00:19:00,
2013-02-19 19:22:00,43.0,41.1,29.92,North,32767,-999.0,-999.0,93,0.00,,,0.25,Wunderground v.1.15,2013-02-20 00:22:00,
2013-02-19 19:23:00,43.0,41.4,29.92,North,32767,-999.0,-999.0,94,0.00,,,0.25,Wunderground v.1.15,2013-02-20 00:23:00,
2013-02-19 19:24:00,43.0,41.4,29.92,North,32767,-999.0,-999.0,94,0.00,,,0.25,Wunderground v.1.15,2013-02-20 00:24:00,
2013-02-19 19:27:00,42.9,41.0,29.92,North,32767,-999.0,-999.0,93,0.00,,,0.25,Wunderground v.1.15,2013-02-20 00:27:00,
2013-02-19 19:28:00,42.9,41.0,29.92,North,32767,-999.0,-999.0,93,0.00,,,0.25,Wunderground v.1.15,2013-02-20 00:28:00,
2013-02-19 19:29:00,42.9,41.3,29.92,North,32767,-999.0,-999.0,94,0.00,,,0.25,Wunderground v.1.15,2013-02-20 00:29:00,
2013-02-19 19:32:00,42.8,40.9,29.92,North,32767,-999.0,-999.0,93,0.00,,,0.25,Wunderground v.1.15,2013-02-20 00:32:00,
2013-02-19 19:33:00,42.7,40.8,29.92,North,32767,-999.0,-999.0,93,0.00,,,0.25,Wunderground v.1.15,2013-02-20 00:33:00,
2013-02-19 19:35:00,42.7,41.1,29.92,North,32767,-999.0,-999.0,94,0.00,,,0.25,Wunderground v.1.15,2013-02-20 00:35:00,
2013-02-19 19:37:00,42.7,41.1,29.92,North,32767,-999.0,-999.0,94,0.00,,,0.25,Wunderground v.1.15,2013-02-20 00:37:00,
2013-02-19 19:38:00,42.7,41.1,29.92,North,32767,-999.0,-999.0,94,0.00,,,0.25,Wunderground v.1.15,2013-02-20 00:38:00,
2013-02-19 19:40:00,42.6,41.0,29.92,North,32767,-999.0,-999.0,94,0.00,,,0.25,Wunderground v.1.15,2013-02-20 00:40:00,
2013-02-19 19:42:00,42.6,41.0,29.92,North,32767,-999.0,-999.0,94,0.00,,,0.25,Wunderground v.1.15,2013-02-20 00:42:00,
2013-02-19 19:43:00,42.6,41.0,29.92,North,32767,-999.0,-999.0,94,0.00,,,0.25,Wunderground v.1.15,2013-02-20 00:43:00,
2013-02-19 19:45:00,42.5,40.9,29.92,North,32767,-999.0,-999.0,94,0.00,,,0.25,Wunderground v.1.15,2013-02-20 00:45:00,
2013-02-19 19:47:00,42.4,40.8,29.92,North,32767,-999.0,-999.0,94,0.00,,,0.25,Wunderground v.1.15,2013-02-20 00:47:00,
2013-02-19 19:48:00,42.3,40.7,29.92,North,32767,-999.0,-999.0,94,0.00,,,0.25,Wunderground v.1.15,2013-02-20 00:48:00,
2013-02-19 19:49:00,42.3,40.7,29.92,North,32767,-999.0,-999.0,94,0.00,,,0.25,Wunderground v.1.15,2013-02-20 00:49:00,
2013-02-19 19:50:00,42.3,40.7,29.92,North,32767,-999.0,-999.0,94,0.00,,,0.25,Wunderground v.1.15,2013-02-20 00:50:00,
2013-02-19 19:52:00,42.3,40.7,29.92,North,32767,-999.0,-999.0,94,0.00,,,0.25,Wunderground v.1.15,2013-02-20 00:52:00,
2013-02-19 19:53:00,42.3,40.7,29.93,North,32767,-999.0,-999.0,94,0.00,,,0.25,Wunderground v.1.15,2013-02-20 00:53:00,
2013-02-19 19:54:00,42.3,40.7,29.93,North,32767,-999.0,-999.0,94,0.00,,,0.25,Wunderground v.1.15,2013-02-20 00:54:00,
2013-02-19 19:55:00,42.3,40.7,29.93,North,32767,-999.0,-999.0,94,0.00,,,0.25,Wunderground v.1.15,2013-02-20 00:55:00,
2013-02-19 19:57:00,42.2,40.6,29.93,North,32767,-999.0,-999.0,94,0.00,,,0.25,Wunderground v.1.15,2013-02-20 00:57:00,
2013-02-19 19:58:00,42.1,40.5,29.93,North,32767,-999.0,-999.0,94,0.00,,,0.25,Wunderground v.1.15,2013-02-20 00:58:00,
2013-02-19 19:59:00,42.1,40.5,29.93,North,32767,-999.0,-999.0,94,0.00,,,0.25,Wunderground v.1.15,2013-02-20 00:59:00,
2013-02-19 20:02:00,42.0,40.4,29.93,North,32767,-999.0,-999.0,94,0.00,,,0.25,Wunderground v.1.15,2013-02-20 01:02:00,
2013-02-19 20:04:00,42.1,40.8,29.93,North,32767,-999.0,-999.0,95,0.00,,,0.25,Wunderground v.1.15,2013-02-20 01:04:00,
2013-02-19 20:07:00,42.2,40.9,29.93,North,32767,-999.0,-999.0,95,0.00,,,0.25,Wunderground v.1.15,2013-02-20 01:07:00,
2013-02-19 20:09:00,42.2,40.6,29.93,North,32767,-999.0,-999.0,94,0.00,,,0.25,Wunderground v.1.15,2013-02-20 01:09:00,
2013-02-19 20:12:00,42.2,40.3,29.93,North,32767,-999.0,-999.0,93,0.00,,,0.25,Wunderground v.1.15,2013-02-20 01:12:00,
2013-02-19 20:14:00,42.1,40.2,29.93,North,32767,-999.0,-999.0,93,0.00,,,0.25,Wunderground v.1.15,2013-02-20 01:14:00,
2013-02-19 20:17:00,42.0,40.1,29.93,North,32767,-999.0,-999.0,93,0.00,,,0.25,Wunderground v.1.15,2013-02-20 01:17:00,
2013-02-19 20:18:00,42.0,40.1,29.93,North,32767,-999.0,-999.0,93,0.00,,,0.25,Wunderground v.1.15,2013-02-20 01:18:00,
2013-02-19 20:19:00,42.0,40.1,29.93,North,32767,-999.0,-999.0,93,0.00,,,0.25,Wunderground v.1.15,2013-02-20 01:19:00,
2013-02-19 20:20:00,41.9,40.0,29.93,North,32767,-999.0,-999.0,93,0.00,,,0.25,Wunderground v.1.15,2013-02-20 01:20:00,
2013-02-19 20:22:00,41.9,40.0,29.93,North,32767,-999.0,-999.0,93,0.00,,,0.25,Wunderground v.1.15,2013-02-20 01:22:00,
2013-02-19 20:23:00,41.9,40.0,29.93,North,32767,-999.0,-999.0,93,0.00,,,0.25,Wunderground v.1.15,2013-02-20 01:23:00,
2013-02-19 20:24:00,41.8,39.9,29.93,North,32767,-999.0,-999.0,93,0.00,,,0.25,Wunderground v.1.15,2013-02-20 01:24:00,
2013-02-19 20:25:00,41.9,40.0,29.93,North,32767,-999.0,-999.0,93,0.00,,,0.25,Wunderground v.1.15,2013-02-20 01:25:00,
2013-02-19 20:28:00,41.8,39.9,29.93,North,32767,-999.0,-999.0,93,0.00,,,0.25,Wunderground v.1.15,2013-02-20 01:28:00,
2013-02-19 20:29:00,41.9,40.0,29.94,North,32767,-999.0,-999.0,93,0.00,,,0.25,Wunderground v.1.15,2013-02-20 01:29:00,
2013-02-19 20:30:00,42.0,40.1,29.93,North,32767,-999.0,-999.0,93,0.00,,,0.25,Wunderground v.1.15,2013-02-20 01:30:00,
2013-02-19 20:33:00,42.1,39.9,29.94,North,32767,-999.0,-999.0,92,0.00,,,0.25,Wunderground v.1.15,2013-02-20 01:33:00,
2013-02-19 20:34:00,42.1,39.9,29.94,North,32767,-999.0,-999.0,92,0.00,,,0.25,Wunderground v.1.15,2013-02-20 01:34:00,
2013-02-19 20:35:00,42.1,39.9,29.94,North,32767,-999.0,-999.0,92,0.00,,,0.25,Wunderground v.1.15,2013-02-20 01:35:00,
2013-02-19 20:38:00,42.2,39.8,29.94,North,32767,-999.0,-999.0,91,0.00,,,0.25,Wunderground v.1.15,2013-02-20 01:38:00,
2013-02-19 20:39:00,42.1,39.7,29.94,North,32767,-999.0,-999.0,91,0.00,,,0.25,Wunderground v.1.15,2013-02-20 01:39:00,
2013-02-19 20:40:00,42.1,39.7,29.94,North,32767,-999.0,-999.0,91,0.00,,,0.25,Wunderground v.1.15,2013-02-20 01:40:00,
2013-02-19 20:43:00,42.0,39.6,29.94,North,32767,-999.0,-999.0,91,0.00,,,0.25,Wunderground v.1.15,2013-02-20 01:43:00,
2013-02-19 20:45:00,41.9,39.5,29.94,North,32767,-999.0,-999.0,91,0.00,,,0.25,Wunderground v.1.15,2013-02-20 01:45:00,
2013-02-19 20:48:00,41.8,39.4,29.94,North,32767,-999.0,-999.0,91,0.00,,,0.25,Wunderground v.1.15,2013-02-20 01:48:00,
2013-02-19 20:50:00,41.6,39.2,29.94,North,32767,-999.0,-999.0,91,0.00,,,0.25,Wunderground v.1.15,2013-02-20 01:50:00,
2013-02-19 20:53:00,41.5,39.1,29.94,North,32767,-999.0,-999.0,91,0.00,,,0.25,Wunderground v.1.15,2013-02-20 01:53:00,
2013-02-19 20:55:00,41.4,39.3,29.94,North,32767,-999.0,0.0,92,0.00,,,0.25,Wunderground v.1.15,2013-02-20 01:55:00,
2013-02-19 20:58:00,41.2,39.1,29.94,North,32767,-999.0,0.0,92,0.00,,,0.25,Wunderground v.1.15,2013-02-20 01:58:00,
2013-02-19 21:00:00,41.1,39.0,29.94,North,32767,-999.0,-999.0,92,0.00,,,0.25,Wunderground v.1.15,2013-02-20 02:00:00,
2013-02-19 21:02:00,40.9,38.8,29.94,North,32767,-999.0,-999.0,92,0.00,,,0.25,Wunderground v.1.15,2013-02-20 02:02:00,
2013-02-19 21:03:00,40.8,38.7,29.94,North,32767,-999.0,-999.0,92,0.00,,,0.25,Wunderground v.1.15,2013-02-20 02:03:00,
2013-02-19 21:05:00,40.7,38.6,29.94,North,32767,-999.0,-999.0,92,0.00,,,0.25,Wunderground v.1.15,2013-02-20 02:05:00,
2013-02-19 21:07:00,40.5,38.4,29.94,North,32767,-999.0,0.0,92,0.00,,,0.25,Wunderground v.1.15,2013-02-20 02:07:00,
2013-02-19 21:08:00,40.4,38.3,29.94,North,32767,-999.0,0.0,92,0.00,,,0.25,Wunderground v.1.15,2013-02-20 02:08:00,
2013-02-19 21:10:00,40.3,38.4,29.94,North,32767,-999.0,-999.0,93,0.00,,,0.25,Wunderground v.1.15,2013-02-20 02:10:00,
2013-02-19 21:12:00,40.2,38.3,29.94,North,32767,-999.0,-999.0,93,0.00,,,0.25,Wunderground v.1.15,2013-02-20 02:12:00,
2013-02-19 21:13:00,40.2,38.3,29.95,North,32767,-999.0,-999.0,93,0.00,,,0.25,Wunderground v.1.15,2013-02-20 02:13:00,
2013-02-19 21:15:00,40.1,38.2,29.95,North,32767,-999.0,-999.0,93,0.00,,,0.25,Wunderground v.1.15,2013-02-20 02:15:00,
2013-02-19 21:17:00,39.9,38.0,29.95,North,32767,-999.0,-999.0,93,0.00,,,0.25,Wunderground v.1.15,2013-02-20 02:17:00,
2013-02-19 21:18:00,39.9,38.3,29.95,North,32767,-999.0,-999.0,94,0.00,,,0.25,Wunderground v.1.15,2013-02-20 02:18:00,
2013-02-19 21:19:00,39.9,38.3,29.94,North,32767,-999.0,-999.0,94,0.00,,,0.25,Wunderground v.1.15,2013-02-20 02:19:00,
2013-02-19 21:20:00,39.9,38.3,29.95,North,32767,-999.0,-999.0,94,0.00,,,0.25,Wunderground v.1.15,2013-02-20 02:20:00,
2013-02-19 21:23:00,39.9,38.3,29.95,North,32767,-999.0,-999.0,94,0.00,,,0.25,Wunderground v.1.15,2013-02-20 02:23:00,
2013-02-19 21:25:00,39.8,38.2,29.95,North,32767,-999.0,-999.0,94,0.00,,,0.25,Wunderground v.1.15,2013-02-20 02:25:00,
2013-02-19 21:28:00,39.6,38.0,29.95,North,32767,-999.0,-999.0,94,0.00,,,0.25,Wunderground v.1.15,2013-02-20 02:28:00,
2013-02-19 21:29:00,39.5,37.9,29.95,North,32767,-999.0,-999.0,94,0.00,,,0.25,Wunderground v.1.15,2013-02-20 02:29:00,
2013-02-19 21:31:00,39.3,37.7,29.95,North,32767,-999.0,-999.0,94,0.00,,,0.25,Wunderground v.1.15,2013-02-20 02:31:00,
2013-02-19 21:33:00,39.2,37.6,29.95,North,32767,-999.0,-999.0,94,0.00,,,0.25,Wunderground v.1.15,2013-02-20 02:33:00,
2013-02-19 21:34:00,39.1,37.5,29.96,North,32767,-999.0,-999.0,94,0.00,,,0.25,Wunderground v.1.15,2013-02-20 02:34:00,
2013-02-19 21:36:00,38.9,37.3,29.95,North,32767,-999.0,-999.0,94,0.00,,,0.25,Wunderground v.1.15,2013-02-20 02:36:00,
2013-02-19 21:38:00,38.7,37.1,29.95,North,32767,-999.0,-999.0,94,0.00,,,0.25,Wunderground v.1.15,2013-02-20 02:38:00,
2013-02-19 21:39:00,38.7,37.1,29.95,North,32767,-999.0,-999.0,94,0.00,,,0.25,Wunderground v.1.15,2013-02-20 02:39:00,
2013-02-19 21:41:00,38.5,36.9,29.95,North,32767,-999.0,-999.0,94,0.00,,,0.25,Wunderground v.1.15,2013-02-20 02:41:00,
2013-02-19 21:43:00,38.4,36.8,29.96,North,32767,-999.0,-999.0,94,0.00,,,0.25,Wunderground v.1.15,2013-02-20 02:43:00,
2013-02-19 21:44:00,38.4,36.8,29.96,North,32767,-999.0,-999.0,94,0.00,,,0.25,Wunderground v.1.15,2013-02-20 02:44:00,
2013-02-19 21:46:00,38.2,36.6,29.96,North,32767,-999.0,-999.0,94,0.00,,,0.25,Wunderground v.1.15,2013-02-20 02:46:00,
2013-02-19 21:48:00,38.2,36.6,29.96,North,32767,-999.0,-999.0,94,0.00,,,0.25,Wunderground v.1.15,2013-02-20 02:48:00,
2013-02-19 21:49:00,38.2,36.6,29.96,North,32767,-999.0,-999.0,94,0.00,,,0.25,Wunderground v.1.15,2013-02-20 02:49:00,
2013-02-19 21:51:00,38.3,35.9,29.96,North,32767,-999.0,-999.0,91,0.00,,,0.25,Wunderground v.1.15,2013-02-20 02:51:00,
2013-02-19 21:53:00,38.8,35.8,29.96,North,32767,-999.0,-999.0,89,0.00,,,0.25,Wunderground v.1.15,2013-02-20 02:53:00,
2013-02-19 21:54:00,38.9,35.6,29.96,North,32767,-999.0,-999.0,88,0.00,,,0.25,Wunderground v.1.15,2013-02-20 02:54:00,
2013-02-19 21:56:00,39.4,34.7,29.96,North,32767,-999.0,0.0,83,0.00,,,0.25,Wunderground v.1.15,2013-02-20 02:56:00,
2013-02-19 21:58:00,39.8,34.4,29.96,North,32767,-999.0,0.0,81,0.00,,,0.25,Wunderground v.1.15,2013-02-20 02:58:00,
2013-02-19 21:59:00,39.9,34.2,29.96,North,32767,-999.0,0.0,80,0.00,,,0.25,Wunderground v.1.15,2013-02-20 02:59:00,
2013-02-19 22:01:00,40.1,34.1,29.96,North,32767,-999.0,-999.0,79,0.00,,,0.25,Wunderground v.1.15,2013-02-20 03:01:00,
2013-02-19 22:03:00,40.6,34.0,29.96,North,32767,-999.0,-999.0,77,0.00,,,0.25,Wunderground v.1.15,2013-02-20 03:03:00,
2013-02-19 22:04:00,40.7,32.7,29.96,North,32767,-999.0,-999.0,73,0.00,,,0.25,Wunderground v.1.15,2013-02-20 03:04:00,
2013-02-19 22:06:00,40.8,32.8,29.96,North,32767,-999.0,-999.0,73,0.00,,,0.25,Wunderground v.1.15,2013-02-20 03:06:00,
2013-02-19 22:09:00,41.1,31.7,29.96,North,32767,-999.0,-999.0,69,0.00,,,0.25,Wunderground v.1.15,2013-02-20 03:09:00,
2013-02-19 22:10:00,41.2,31.4,29.96,North,32767,-999.0,-999.0,68,0.00,,,0.25,Wunderground v.1.15,2013-02-20 03:10:00,
2013-02-19 22:11:00,41.2,31.4,29.96,North,32767,-999.0,-999.0,68,0.00,,,0.25,Wunderground v.1.15,2013-02-20 03:11:00,
2013-02-19 22:14:00,41.2,30.3,29.96,North,32767,-999.0,-999.0,65,0.00,,,0.25,Wunderground v.1.15,2013-02-20 03:14:00,
2013-02-19 22:15:00,41.2,30.3,29.96,North,32767,-999.0,-999.0,65,0.00,,,0.25,Wunderground v.1.15,2013-02-20 03:15:00,
2013-02-19 22:16:00,41.2,30.3,29.96,North,32767,-999.0,-999.0,65,0.00,,,0.25,Wunderground v.1.15,2013-02-20 03:16:00,
2013-02-19 22:19:00,41.1,29.5,29.96,North,32767,-999.0,-999.0,63,0.00,,,0.25,Wunderground v.1.15,2013-02-20 03:19:00,
2013-02-19 22:20:00,41.1,29.5,29.96,North,32767,-999.0,-999.0,63,0.00,,,0.25,Wunderground v.1.15,2013-02-20 03:20:00,
2013-02-19 22:22:00,41.2,28.4,29.96,North,32767,-999.0,-999.0,60,0.00,,,0.25,Wunderground v.1.15,2013-02-20 03:22:00,
2013-02-19 22:24:00,41.1,29.1,29.96,North,32767,-999.0,-999.0,62,0.00,,,0.25,Wunderground v.1.15,2013-02-20 03:24:00,
2013-02-19 22:25:00,41.1,29.5,29.96,North,32767,-999.0,-999.0,63,0.00,,,0.25,Wunderground v.1.15,2013-02-20 03:25:00,
2013-02-19 22:27:00,40.9,28.1,29.96,North,32767,-999.0,-999.0,60,0.00,,,0.25,Wunderground v.1.15,2013-02-20 03:27:00,
2013-02-19 22:29:00,40.7,27.9,29.97,North,32767,-999.0,-999.0,60,0.00,,,0.25,Wunderground v.1.15,2013-02-20 03:29:00,
2013-02-19 22:30:00,40.7,28.3,29.97,North,32767,-999.0,-999.0,61,0.00,,,0.25,Wunderground v.1.15,2013-02-20 03:30:00,
2013-02-19 22:32:00,40.8,26.7,29.97,North,32767,-999.0,-999.0,57,0.00,,,0.25,Wunderground v.1.15,2013-02-20 03:32:00,
2013-02-19 22:34:00,40.8,28.0,29.96,North,32767,-999.0,0.0,60,0.00,,,0.25,Wunderground v.1.15,2013-02-20 03:34:00,
2013-02-19 22:35:00,40.8,27.6,29.97,North,32767,-999.0,0.0,59,0.00,,,0.25,Wunderground v.1.15,2013-02-20 03:35:00,
2013-02-19 22:37:00,40.6,27.0,29.97,North,32767,-999.0,0.0,58,0.00,,,0.25,Wunderground v.1.15,2013-02-20 03:37:00,
2013-02-19 22:39:00,40.4,26.8,29.97,North,32767,-999.0,0.0,58,0.00,,,0.25,Wunderground v.1.15,2013-02-20 03:39:00,
2013-02-19 22:40:00,40.4,27.2,29.97,North,32767,-999.0,-999.0,59,0.00,,,0.25,Wunderground v.1.15,2013-02-20 03:40:00,
2013-02-19 22:42:00,40.2,26.2,29.97,North,32767,-999.0,-999.0,57,0.00,,,0.25,Wunderground v.1.15,2013-02-20 03:42:00,
2013-02-19 22:44:00,40.2,26.6,29.97,North,32767,-999.0,-999.0,58,0.00,,,0.25,Wunderground v.1.15,2013-02-20 03:44:00,
2013-02-19 22:45:00,40.2,26.2,29.97,North,32767,-999.0,-999.0,57,0.00,,,0.25,Wunderground v.1.15,2013-02-20 03:45:00,
2013-02-19 22:47:00,40.5,25.6,29.97,North,32767,-999.0,0.0,55,0.00,,,0.25,Wunderground v.1.15,2013-02-20 03:47:00,
2013-02-19 22:50:00,40.5,26.4,29.97,North,32767,-999.0,-999.0,57,0.00,,,0.25,Wunderground v.1.15,2013-02-20 03:50:00,
2013-02-19 22:52:00,40.2,26.2,29.97,North,32767,-999.0,-999.0,57,0.00,,,0.25,Wunderground v.1.15,2013-02-20 03:52:00,
2013-02-19 22:55:00,40.0,26.0,29.97,North,32767,-999.0,-999.0,57,0.00,,,0.25,Wunderground v.1.15,2013-02-20 03:55:00,
2013-02-19 22:58:00,40.6,23.9,29.97,North,32767,-999.0,-999.0,51,0.00,,,0.25,Wunderground v.1.15,2013-02-20 03:58:00,
2013-02-19 23:00:00,40.8,24.1,29.97,North,32767,-999.0,-999.0,51,0.00,,,0.25,Wunderground v.1.15,2013-02-20 04:00:00,
2013-02-19 23:02:00,41.2,23.5,29.97,North,32767,-999.0,-999.0,49,0.00,,,0.25,Wunderground v.1.15,2013-02-20 04:02:00,
2013-02-19 23:03:00,41.3,23.6,29.97,North,32767,-999.0,-999.0,49,0.00,,,0.25,Wunderground v.1.15,2013-02-20 04:03:00,
2013-02-19 23:05:00,41.4,22.1,29.96,North,32767,-999.0,-999.0,46,0.00,,,0.25,Wunderground v.1.15,2013-02-20 04:05:00,
2013-02-19 23:07:00,41.6,22.3,29.97,North,32767,-999.0,-999.0,46,0.00,,,0.25,Wunderground v.1.15,2013-02-20 04:07:00,
2013-02-19 23:08:00,41.6,21.8,29.97,North,32767,-999.0,-999.0,45,0.00,,,0.25,Wunderground v.1.15,2013-02-20 04:08:00,
2013-02-19 23:10:00,41.9,21.5,29.97,North,32767,-999.0,-999.0,44,0.00,,,0.25,Wunderground v.1.15,2013-02-20 04:10:00,
2013-02-19 23:12:00,42.1,21.2,29.97,North,32767,-999.0,-999.0,43,0.00,,,0.25,Wunderground v.1.15,2013-02-20 04:12:00,
2013-02-19 23:13:00,42.1,21.7,29.97,North,32767,-999.0,-999.0,44,0.00,,,0.25,Wunderground v.1.15,2013-02-20 04:13:00,
2013-02-19 23:15:00,42.2,21.3,29.97,North,32767,-999.0,-999.0,43,0.00,,,0.25,Wunderground v.1.15,2013-02-20 04:15:00,
2013-02-19 23:17:00,42.1,22.3,29.97,North,32767,-999.0,-999.0,45,0.00,,,0.25,Wunderground v.1.15,2013-02-20 04:17:00,
2013-02-19 23:18:00,42.1,21.2,29.97,North,32767,-999.0,-999.0,43,0.00,,,0.25,Wunderground v.1.15,2013-02-20 04:18:00,
2013-02-19 23:20:00,42.0,22.2,29.97,North,32767,-999.0,-999.0,45,0.00,,,0.25,Wunderground v.1.15,2013-02-20 04:20:00,
2013-02-19 23:22:00,41.8,21.5,29.97,North,32767,-999.0,-999.0,44,0.00,,,0.25,Wunderground v.1.15,2013-02-20 04:22:00,
2013-02-19 23:23:00,41.7,21.4,29.97,North,32767,-999.0,-999.0,44,0.00,,,0.25,Wunderground v.1.15,2013-02-20 04:23:00,
2013-02-19 23:25:00,41.6,21.8,29.97,North,32767,-999.0,-999.0,45,0.00,,,0.25,Wunderground v.1.15,2013-02-20 04:25:00,
2013-02-19 23:27:00,41.4,21.1,29.97,North,32767,-999.0,-999.0,44,0.00,,,0.25,Wunderground v.1.15,2013-02-20 04:27:00,
2013-02-19 23:28:00,41.4,21.1,29.97,North,32767,-999.0,-999.0,44,0.00,,,0.25,Wunderground v.1.15,2013-02-20 04:28:00,
2013-02-19 23:30:00,41.5,20.6,29.97,North,32767,-999.0,-999.0,43,0.00,,,0.25,Wunderground v.1.15,2013-02-20 04:30:00,
2013-02-19 23:32:00,41.5,21.2,29.98,North,32767,-999.0,-999.0,44,0.00,,,0.25,Wunderground v.1.15,2013-02-20 04:32:00,
2013-02-19 23:33:00,41.5,21.7,29.98,North,32767,-999.0,-999.0,45,0.00,,,0.25,Wunderground v.1.15,2013-02-20 04:33:00,
2013-02-19 23:35:00,41.3,21.5,29.98,North,32767,-999.0,-999.0,45,0.00,,,0.25,Wunderground v.1.15,2013-02-20 04:35:00,
2013-02-19 23:36:00,41.3,21.5,29.98,North,32767,-999.0,-999.0,45,0.00,,,0.25,Wunderground v.1.15,2013-02-20 04:36:00,
2013-02-19 23:37:00,41.1,20.8,29.98,North,32767,-999.0,-999.0,44,0.00,,,0.25,Wunderground v.1.15,2013-02-20 04:37:00,
2013-02-19 23:38:00,41.0,21.3,29.98,North,32767,-999.0,-999.0,45,0.00,,,0.25,Wunderground v.1.15,2013-02-20 04:38:00,
2013-02-19 23:41:00,40.9,21.2,29.98,North,32767,-999.0,-999.0,45,0.00,,,0.25,Wunderground v.1.15,2013-02-20 04:41:00,
2013-02-19 23:43:00,40.7,21.0,29.98,North,32767,-999.0,-999.0,45,0.00,,,0.25,Wunderground v.1.15,2013-02-20 04:43:00,
2013-02-19 23:44:00,40.6,21.4,29.98,North,32767,-999.0,-999.0,46,0.00,,,0.25,Wunderground v.1.15,2013-02-20 04:44:00,
2013-02-19 23:46:00,40.3,21.1,29.98,North,32767,-999.0,-999.0,46,0.00,,,0.25,Wunderground v.1.15,2013-02-20 04:46:00,
2013-02-19 23:48:00,40.1,21.0,29.98,North,32767,-999.0,-999.0,46,0.00,,,0.25,Wunderground v.1.15,2013-02-20 04:48:00,
2013-02-19 23:49:00,39.9,20.8,29.98,North,32767,-999.0,-999.0,46,0.00,,,0.25,Wunderground v.1.15,2013-02-20 04:49:00,
2013-02-19 23:51:00,39.7,21.1,29.98,North,32767,-999.0,-999.0,47,0.00,,,0.25,Wunderground v.1.15,2013-02-20 04:51:00,
2013-02-19 23:53:00,39.6,21.0,29.98,North,32767,-999.0,-999.0,47,0.00,,,0.25,Wunderground v.1.15,2013-02-20 04:53:00,
2013-02-19 23:54:00,39.6,20.5,29.98,North,32767,-999.0,-999.0,46,0.00,,,0.25,Wunderground v.1.15,2013-02-20 04:54:00,
2013-02-19 23:56:00,39.5,21.4,29.98,North,32767,-999.0,-999.0,48,0.00,,,0.25,Wunderground v.1.15,2013-02-20 04:56:00,
2013-02-19 23:58:00,39.4,21.3,29.98,North,32767,-999.0,-999.0,48,0.00,,,0.25,Wunderground v.1.15,2013-02-20 04:58:00,
2013-02-19 23:59:00,39.3,21.2,29.98,North,32767,-999.0,-999.0,48,0.00,,,0.25,Wunderground v.1.15,2013-02-20 04:59:00,